STARLINK-31470, 59569

Orbit data source: Space-Track

STARLINK-31470, 59569 is a payload satellite owned by SpaceX/Seattle (US) in LEO that was launched on Tue, 23 Apr 2024 UTC via an FALCON 9 launch vehicle from the Air Force Eastern Test Range (AFETR). Payload-class satellites include a variety of spacecraft equipped with specific instruments for various scientific and technological missions. These include communications satellites like Starlink; space stations such as the ISS; scientific satellites like the Hubble; Earth observation satellites from companies like Planet Labs, Umbra, and HawkEye 360; GPS; miniature CubeSats for education and research; and military/defense satellites.

Loading next visibility...
Identifier
59569, 2024-076F
Orbit
LEO
Last TLE update
6 hours ago
Origin
Manufacturer
SpaceX/Seattle
Mission
Operational spacecraft
Bus & Motor
STARLINK V2M, Unknown motor
Mass
730 kg wet, ~700 kg dry
Launch date (UTC)
2024-04-23 (1 year ago)
Launch vehicle
FALCON 9
Launch site
Air Force Eastern Test Range (AFETR)
Object type
Payload
Rocket body
Debris
Shape & HBR
Unknown
Radar Cross Section
Large (>1 m²)

Expand to show TLE details & history

TLE from 6 hours ago
0 STARLINK-31470
1 59569U 24076F   25182.15836924  .00000329  00000-0  21491-4 0  9994
2 59569  43.0036 346.1103 0001978 273.8130  86.2495 15.27586208 67909
Epoch: 2025-07-01T03:48Z
TLE epoch observation values (Epoch: 2025-07-01T03:48:03.102Z)
Latitude
-0.00005°
Longitude
9.63949°
Altitude
482.718 km
Speed
7.626 km/s
True Right ascension
23h 04m 26s
True Declination
0° 00' 00"
Sunlit
Object was in full shadow at epoch
Visualization orbit readout
Latitude
14.68438°
Longitude
24.36582°
Altitude
482.461 km
Speed
7.627 km/s
Apparent Right ascension
03h 10m 03s
Apparent Declination
-32° 07' 08"
Sunlit
Object is in daylight
Visualization observer readout
Local Sidereal Time
21:48:45
Azimuth
120.871° SE
Elevation
-13.415°
Doppler factor
1
Orbital elements
Apogee altitude
486.333 km
Perigee altitude
483.618 km
Semi-major axis
6,863.112 km
Eccentricity
0.0002
Inclination
43.0036°
RAAN
346.1103°
Arg. of periapsis
273.813°
True anomaly
Unknown
Mean anomaly
86.2495°
Eccentric anomaly
Unknown
Mean motion
3.81735 °/min
Orbital period
94.31 mins
BSTAR
0.000021491
Loading maneuver chart data...
Loading SW <> Apogee altitude chart data...
Loading historical data...
Loading historical data...
Loading historical data...
Loading historical data...
Loading historical data...
Loading historical data...
Loading historical data...

STARLINK-31470 Visibility forecast

Observer location: undefined°, undefined°

Span
Click to sort rows by Start time (UTC) header in descending order
Start Az.
Max El. time (UTC)
Max El. Az.
Max El.
End time (UTC)
End Az.
5 mins2025-07-01 15:02:20.797Z234.579° WSW2025-07-01 15:04:20.797Z149.345° SSE42.925°2025-07-01 15:07:20.797Z75.724° E
5 mins2025-07-01 16:41:20.797Z286.15° WNW2025-07-01 16:43:20.797Z355.322° N38.87°2025-07-01 16:46:20.797Z70.517° E
5 mins2025-07-01 18:20:20.797Z294.295° NW2025-07-01 18:22:20.797Z349.395° N42.221°2025-07-01 18:25:20.797Z93.813° ESE
5 mins2025-07-01 19:59:20.797Z265.791° W2025-07-01 20:01:20.797Z211.419° SW31.465°2025-07-01 20:04:20.797Z144.038° SSE
|